Wind_Speed
2 1 1 2 2 2 3 3 3 3 3 4 4 3 4 4 4 4 4 5 5 5 5 5 5 4 5 6 6 6 7 7 8 8 8 9 9 10 11 10 11 10 10
1 1 1 2 2 3 4 4 3 4 4 3 4 4 4 4 4 4 5 5 5 5 6 5 5 6 6 7 7 7 7 7 8 9 9 10 10 10 11 10 11 11 12
1 1 2 2 3 4 4 4 4 3 4 4 4 5 5 5 5 5 6 6 6 7 6 7 6 7 7 8 9 8 8 8 9 9 10 10 10 11 12 11 11 11 13
2 2 2 3 3 4 5 4 4 4 4 4 3 4 5 5 6 7 7 7 8 8 8 8 8 9 10 10 10 10 10 10 10 11 11 11 11 12 12 12 12 13 13
3 3 3 3 4 5 5 6 6 5 5 5 6 6 6 7 8 9 9 9 9 10 10 10 10 11 11 11 11 11 11 12 12 12 12 13 13 13 13 13 13 13 12
3 3 4 4 4 5 6 6 6 6 6 7 7 7 8 9 9 10 10 10 11 11 12 13 13 13 13 13 13 13 14 14 14 14 14 14 14 14 14 15 14 13 12
5 4 5 5 5 6 6 6 7 7 7 8 8 8 8 9 10 10 11 11 12 13 14 14 14 15 15 15 15 15 16 16 17 16 16 16 16 15 15 14 14 14 13
4 5 5 6 6 7 7 8 8 8 8 8 9 9 9 10 11 11 12 13 14 14 14 15 16 16 17 17 17 18 18 18 18 18 18 18 17 16 16 15 15 14 14
4 5 6 7 7 8 8 9 9 9 9 10 10 10 10 11 12 13 13 14 14 15 15 16 16 17 17 18 18 19 19 19 19 19 19 18 18 17 17 17 16 16 15
6 6 7 8 9 9 9 10 10 10 10 10 11 11 12 12 13 13 14 14 15 15 16 16 16 17 17 18 19 19 19 20 20 21 21 20 19 19 19 18 18 18 17
8 8 8 9 10 10 10 10 10 10 11 11 12 12 13 13 13 14 14 15 16 16 16 16 17 17 18 19 20 20 19 20 21 21 21 21 21 21 21 20 20 20 19
8 9 10 10 11 11 12 11 11 12 12 12 13 13 13 14 14 14 15 15 16 16 16 17 18 18 18 19 20 20 20 20 21 21 21 20 20 20 21 21 21 22 21
9 10 10 11 12 13 13 13 12 12 13 13 13 14 14 14 15 15 16 16 17 17 17 17 18 19 19 20 20 21 21 21 22 22 21 21 21 22 22 23 22 22 21
10 11 11 12 13 14 14 13 13 13 14 14 15 15 16 15 16 17 17 17 17 18 19 19 19 20 20 21 21 22 22 22 22 22 22 23 22 23 23 23 24 23 21
12 12 12 13 14 14 14 14 14 15 15 16 16 17 17 17 18 18 18 19 19 19 20 21 22 22 22 22 22 23 23 23 23 23 23 23 23 23 23 22 23 22 21
13 13 14 15 15 15 15 15 16 16 17 17 18 18 19 19 19 19 19 19 20 21 22 22 22 23 23 22 22 23 23 24 24 23 23 23 24 23 22 22 22 21 21
15 16 16 17 16 16 16 17 17 18 18 18 19 19 19 20 21 21 21 22 22 22 22 22 23 23 22 22 22 23 24 24 24 24 24 24 25 24 23 23 23 22 22
17 17 18 18 18 18 18 18 19 19 20 20 20 20 20 21 22 23 23 23 23 22 22 23 23 22 22 22 22 23 24 24 24 25 24 23 23 23 23 23 23 23 22
17 18 19 20 20 20 20 20 21 21 22 22 22 23 23 24 23 23 24 24 23 23 23 23 22 22 22 22 23 23 24 24 24 25 24 24 24 23 24 23 23 22 22
19 20 21 21 21 21 21 22 22 23 23 24 24 24 24 24 24 24 24 23 24 24 23 23 22 22 22 23 24 24 24 24 25 25 25 24 24 24 24 24 23 23 23
22 22 22 23 22 22 22 23 23 24 24 24 25 25 25 24 24 24 24 24 24 24 24 23 23 23 23 23 24 25 25 26 26 25 25 25 25 25 25 24 24 24 24
24 23 24 23 23 24 24 25 25 25 25 25 26 26 25 25 25 24 25 25 25 24 25 25 24 24 24 24 24 24 25 25 25 25 24 24 25 25 25 24 24 24 24
25 25 24 24 25 26 26 27 27 27 27 27 27 26 27 26 26 26 25 25 25 25 25 25 25 24 24 24 24 25 25 24 24 24 24 24 24 24 25 25 25 24 24
25 25 25 26 27 28 28 28 29 29 29 28 28 28 28 27 27 27 27 27 27 27 26 26 25 25 24 24 24 25 25 25 24 23 24 24 24 24 24 25 25 24 24
26 27 27 28 28 28 27 28 29 28 28 28 28 28 28 28 28 28 28 28 28 28 27 27 26 25 25 25 25 26 25 25 24 24 24 24 24 24 24 25 24 25 25
28 28 28 29 29 29 29 28 29 28 28 28 28 28 29 29 29 30 29 29 29 28 27 27 26 25 25 25 26 26 26 25 24 23 23 24 24 24 24 23 24 24 25
Wind_Direction
203 208 248 255 266 291 300 299 303 304 294 275 265 270 278 278 286 285 279 275 267 259 257 249 247 255 260 262 260 265 261 257 257 257 259 261 262 262 262 261 261 263 265
176 189 266 265 278 288 294 299 302 303 303 290 270 266 274 274 283 290 286 283 279 266 260 260 257 257 260 265 270 273 268 265 261 257 260 261 265 267 266 264 265 262 262
206 222 290 293 293 299 303 304 310 303 297 291 281 272 273 277 279 282 282 279 277 274 267 262 262 270 268 267 270 272 274 269 265 262 262 265 268 271 271 269 271 268 264
242 268 297 301 296 295 300 302 308 309 306 300 293 290 289 285 279 279 279 277 277 277 272 266 268 270 273 272 269 270 272 275 272 270 267 267 271 272 273 274 275 274 267
261 282 302 304 306 302 298 295 296 296 300 299 293 292 292 287 282 280 280 279 279 278 274 268 270 272 274 274 272 269 271 276 278 277 272 269 272 274 273 273 275 273 269
280 286 296 300 311 313 306 304 299 294 299 305 302 297 288 284 282 283 280 279 278 279 278 272 270 272 274 275 274 273 275 276 278 278 276 272 274 274 274 272 275 274 269
284 285 291 304 307 310 310 308 300 296 296 298 298 295 291 284 283 287 285 282 281 281 280 274 272 270 273 274 275 275 276 276 274 275 276 273 272 272 272 274 274 275 271
292 298 297 303 308 308 310 308 306 302 302 300 297 296 294 292 290 290 291 287 285 284 281 280 277 274 271 272 272 274 274 276 275 274 274 272 270 271 272 275 275 276 274
286 296 301 303 304 307 308 308 307 304 300 298 296 294 293 293 295 296 296 294 290 287 284 282 281 276 273 273 272 275 276 277 276 275 273 272 272 274 273 275 276 276 275
283 289 295 299 299 303 305 306 305 305 302 299 296 293 294 296 298 299 296 295 294 293 288 286 284 280 275 275 274 275 278 278 276 277 276 273 272 273 272 273 276 277 275
285 288 293 295 297 299 301 300 299 300 300 298 296 294 294 296 297 300 299 296 296 296 293 287 285 283 280 279 277 277 279 280 278 279 278 275 274 272 272 274 272 274 274
285 286 289 291 295 298 300 298 296 296 297 296 295 294 295 297 298 299 299 297 296 296 293 289 286 285 283 280 278 278 279 281 282 280 278 275 274 274 275 274 273 272 272
293 291 292 294 296 297 299 297 294 296 297 296 296 295 295 296 298 298 299 299 298 295 292 289 286 284 282 280 277 279 280 281 282 279 276 274 273 273 274 274 272 272 271
292 292 292 295 296 297 297 294 291 294 294 294 294 294 294 294 297 297 297 298 297 295 292 290 289 285 284 283 280 280 280 281 280 278 276 273 271 273 274 276 273 270 271
291 290 290 294 296 295 295 294 293 293 293 293 292 292 292 293 295 295 295 295 295 295 294 291 289 288 288 285 281 279 278 279 279 278 276 274 271 272 273 274 274 269 270
291 290 289 292 296 297 295 293 294 294 295 294 292 291 292 292 295 294 295 297 297 296 295 292 290 288 288 284 281 278 277 279 279 278 277 274 272 270 270 271 271 269 269
291 290 292 294 295 295 294 294 294 295 296 295 293 291 293 294 294 294 295 296 298 297 294 292 290 289 287 284 283 280 279 280 280 280 279 276 273 271 272 270 269 268 268
292 291 293 294 293 293 292 292 292 293 294 295 292 292 291 292 291 292 294 295 295 295 294 292 291 291 289 286 284 282 282 283 283 283 283 279 278 276 274 272 269 268 267
291 292 294 293 292 292 292 291 291 291 292 292 291 291 292 294 296 296 296 296 295 294 294 293 292 293 290 287 285 284 285 286 286 285 283 280 279 279 278 274 271 272 270
288 290 291 291 291 290 290 290 291 291 291 291 291 291 292 294 295 296 296 295 294 294 294 293 293 292 290 289 286 284 285 285 285 284 283 281 279 279 279 275 273 273 272
288 289 290 288 288 288 288 289 290 290 290 290 290 291 293 293 294 294 294 294 293 293 292 291 291 291 290 289 288 287 286 284 283 283 283 282 279 279 277 276 275 272 271
288 289 289 287 287 288 287 288 288 288 289 289 290 291 291 292 293 293 294 293 292 292 292 292 291 290 290 289 288 287 286 286 284 283 282 281 280 279 277 276 277 276 272
288 286 288 288 288 289 288 287 287 287 288 288 289 290 291 292 292 292 292 291 290 290 291 290 288 289 290 289 288 287 287 288 286 283 282 282 280 279 278 278 277 277 274
291 289 290 289 288 288 287 286 287 288 288 288 288 289 289 289 290 289 289 289 289 288 289 288 286 287 288 288 288 288 288 287 285 282 281 280 280 280 277 277 277 278 276
290 290 289 290 290 290 288 287 288 289 289 290 290 290 289 289 289 288 287 287 286 287 287 286 286 286 286 286 286 288 287 286 284 283 281 281 280 279 278 277 278 278 277
289 290 289 288 289 289 289 290 290 291 290 291 290 289 288 287 287 288 286 285 286 285 284 284 284 285 286 286 285 285 284 283 282 281 280 280 279 279 279 277 277 275 274
Height
5900 5900 5900 5899 5899 5898 5898 5897 5896 5895 5894 5894 5894 5895 5895 5895 5895 5894 5894 5894 5894 5893 5893 5893 5893 5893 5893 5893 5893 5893 5893 5893 5893 5893 5893 5893 5893 5892 5892 5893 5893 5893 5893
5900 5900 5899 5899 5898 5898 5897 5896 5895 5894 5893 5893 5893 5893 5894 5893 5893 5893 5893 5893 5893 5892 5892 5892 5892 5892 5892 5891 5891 5891 5891 5891 5891 5891 5891 5891 5891 5891 5890 5890 5890 5890 5890
5900 5899 5899 5898 5898 5897 5896 5895 5894 5893 5892 5892 5892 5892 5892 5892 5892 5892 5892 5892 5891 5891 5891 5891 5891 5891 5890 5890 5890 5890 5890 5889 5889 5889 5889 5889 5888 5888 5888 5888 5888 5887 5887
5899 5899 5898 5898 5897 5896 5895 5895 5894 5893 5892 5892 5892 5891 5891 5891 5891 5891 5890 5890 5889 5889 5889 5889 5889 5889 5889 5888 5888 5888 5887 5887 5887 5887 5887 5886 5886 5886 5885 5885 5885 5884 5884
5898 5898 5897 5897 5896 5895 5894 5894 5893 5892 5892 5891 5890 5890 5890 5889 5889 5889 5888 5888 5887 5887 5887 5887 5887 5886 5886 5886 5886 5885 5885 5885 5885 5884 5884 5884 5883 5883 5883 5882 5881 5881 5880
5897 5897 5897 5896 5895 5894 5893 5893 5892 5891 5891 5890 5889 5889 5888 5887 5887 5887 5886 5886 5885 5884 5884 5884 5883 5883 5883 5883 5883 5883 5882 5882 5882 5881 5881 5880 5880 5879 5879 5878 5878 5877 5877
5896 5896 5896 5895 5894 5894 5892 5892 5891 5890 5889 5888 5887 5887 5886 5885 5885 5885 5884 5883 5882 5881 5881 5880 5880 5880 5880 5879 5879 5879 5879 5879 5878 5878 5877 5877 5876 5876 5876 5874 5873 5873 5873
5895 5895 5895 5894 5893 5892 5891 5891 5890 5889 5887 5886 5886 5885 5884 5884 5883 5882 5881 5880 5879 5878 5877 5876 5876 5876 5876 5875 5876 5875 5875 5875 5874 5874 5873 5873 5872 5872 5871 5871 5870 5869 5869
5894 5894 5893 5893 5892 5891 5890 5889 5888 5887 5886 5885 5884 5883 5883 5882 5881 5880 5878 5877 5876 5875 5874 5873 5872 5871 5871 5871 5871 5871 5871 5871 5870 5869 5869 5868 5868 5868 5867 5867 5866 5866 5865
5893 5892 5892 5891 5890 5890 5889 5887 5886 5885 5884 5883 5882 5881 5880 5879 5878 5877 5876 5874 5872 5871 5870 5869 5868 5868 5867 5867 5867 5867 5866 5866 5865 5864 5864 5864 5863 5863 5863 5862 5862 5862 5861
5891 5890 5890 5889 5888 5887 5886 5885 5884 5883 5882 5881 5880 5878 5877 5876 5875 5874 5873 5871 5869 5868 5866 5865 5864 5864 5863 5863 5862 5862 5861 5861 5860 5860 5859 5859 5858 5858 5858 5858 5858 5857 5856
5889 5888 5888 5887 5886 5885 5884 5883 5882 5881 5880 5878 5877 5876 5875 5873 5872 5871 5870 5868 5866 5864 5863 5861 5860 5859 5859 5858 5857 5857 5856 5856 5855 5854 5854 5853 5853 5853 5853 5852 5852 5852 5851
5887 5886 5885 5885 5884 5883 5882 5880 5879 5878 5877 5876 5874 5873 5871 5870 5869 5868 5866 5864 5863 5861 5859 5857 5856 5855 5854 5853 5852 5852 5851 5851 5850 5849 5848 5848 5848 5847 5847 5847 5847 5846 5846
5885 5884 5883 5882 5881 5880 5879 5878 5876 5875 5874 5873 5871 5870 5868 5867 5865 5864 5862 5861 5859 5857 5855 5853 5852 5851 5849 5848 5847 5847 5846 5845 5844 5843 5843 5842 5842 5841 5841 5840 5840 5840 5840
5882 5882 5881 5880 5878 5877 5876 5874 5873 5872 5870 5869 5867 5866 5864 5863 5861 5860 5858 5856 5855 5853 5851 5849 5847 5846 5844 5843 5842 5841 5841 5840 5839 5838 5837 5836 5835 5835 5835 5834 5834 5833 5833
5880 5879 5878 5877 5875 5874 5872 5871 5870 5868 5867 5865 5863 5862 5860 5859 5857 5856 5854 5852 5850 5848 5846 5844 5842 5841 5839 5838 5837 5836 5835 5834 5833 5832 5831 5830 5829 5829 5829 5828 5827 5827 5827
5877 5876 5875 5873 5872 5870 5869 5867 5866 5864 5863 5861 5859 5857 5856 5854 5852 5851 5849 5847 5845 5843 5841 5839 5837 5835 5834 5833 5831 5830 5829 5828 5827 5826 5825 5824 5823 5823 5822 5822 5821 5821 5821
5873 5872 5871 5869 5868 5866 5865 5863 5862 5860 5858 5857 5855 5853 5851 5849 5847 5845 5843 5841 5839 5837 5836 5834 5832 5830 5829 5827 5826 5825 5824 5823 5822 5820 5819 5818 5817 5817 5816 5816 5815 5814 5814
5869 5868 5866 5865 5864 5862 5860 5859 5857 5855 5854 5852 5850 5848 5846 5844 5842 5840 5838 5836 5834 5832 5830 5828 5826 5825 5823 5822 5821 5819 5818 5817 5815 5814 5813 5812 5811 5811 5810 5809 5809 5808 5808
5865 5863 5862 5860 5858 5857 5855 5853 5851 5850 5848 5846 5844 5842 5840 5838 5836 5834 5832 5830 5828 5826 5824 5822 5821 5819 5817 5816 5814 5813 5812 5811 5809 5808 5807 5806 5805 5804 5803 5803 5802 5802 5801
5859 5857 5856 5854 5852 5851 5849 5847 5845 5843 5842 5840 5838 5836 5834 5832 5830 5828 5826 5824 5822 5820 5818 5817 5815 5813 5812 5810 5808 5807 5805 5804 5802 5801 5800 5799 5798 5797 5797 5796 5795 5795 5794
5853 5851 5850 5848 5846 5844 5843 5841 5839 5837 5835 5833 5831 5829 5827 5825 5823 5821 5819 5818 5816 5814 5812 5811 5809 5807 5806 5804 5802 5800 5798 5797 5796 5795 5793 5792 5791 5790 5790 5789 5789 5788 5788
5847 5845 5843 5841 5839 5838 5836 5834 5831 5830 5828 5826 5824 5822 5820 5818 5817 5815 5813 5811 5809 5807 5806 5804 5803 5801 5799 5797 5796 5794 5792 5791 5789 5788 5786 5785 5784 5784 5783 5782 5782 5781 5781
5840 5838 5836 5834 5832 5830 5828 5826 5824 5822 5820 5818 5816 5815 5813 5811 5809 5807 5805 5803 5802 5800 5798 5797 5795 5794 5792 5790 5789 5787 5785 5784 5783 5781 5780 5779 5778 5777 5776 5776 5775 5775 5774
5833 5831 5829 5827 5825 5822 5820 5818 5816 5814 5812 5810 5808 5806 5804 5803 5801 5799 5797 5795 5794 5792 5790 5789 5788 5786 5785 5783 5781 5780 5778 5777 5775 5774 5773 5772 5771 5770 5769 5769 5768 5768 5767
5826 5824 5822 5819 5817 5815 5813 5810 5807 5805 5803 5801 5800 5798 5796 5794 5793 5790 5788 5787 5785 5784 5782 5781 5780 5778 5777 5775 5774 5772 5771 5769 5768 5767 5766 5765 5764 5763 5762 5762 5761 5760 5760